• In Uzbekistan
  • List of Countries
  • For 7 days
  • Water Temperature
  • Satellite Maps
  • Weather Map
  • Weather Widgets
  • user-avatar
    Login

    Hourly Weather Batina

    Today, 26 May, Friday

    Time Temperature Precipitation Wind Pressure Humidity
    00:00 +21°C° 0.2 mm 1 mps 671 mmHg 56%
    01:00 +20°C° 0 mm 2 mps 671 mmHg 57%
    02:00 +20°C° 0 mm 2 mps 671 mmHg 58%
    03:00 +19°C° 0 mm 2 mps 670 mmHg 60%
    04:00 +20°C° 0 mm 2 mps 671 mmHg 57%
    05:00 +21°C° 0 mm 2 mps 671 mmHg 55%
    06:00 +21°C° 0 mm 2 mps 671 mmHg 53%
    07:00 +24°C° 0 mm 2 mps 671 mmHg 45%
    08:00 +27°C° 0 mm 3 mps 672 mmHg 37%
    09:00 +29°C° 0 mm 3 mps 673 mmHg 28%
    10:00 +30°C° 0 mm 4 mps 673 mmHg 25%
    11:00 +32°C° 0 mm 4 mps 673 mmHg 22%
    12:00 +34°C° 0 mm 5 mps 673 mmHg 19%
    13:00 +33°C° 0 mm 4 mps 672 mmHg 20%
    14:00 +33°C° 0 mm 4 mps 672 mmHg 21%
    15:00 +32°C° 0 mm 4 mps 671 mmHg 22%
    16:00 +30°C° 0.1 mm 3 mps 671 mmHg 25%
    17:00 +29°C° 0.1 mm 2 mps 671 mmHg 29%
    18:00 +28°C° 0.1 mm 1 mps 671 mmHg 32%
    19:00 +26°C° 0.2 mm 2 mps 671 mmHg 38%
    20:00 +24°C° 0.2 mm 2 mps 671 mmHg 43%
    21:00 +21°C° 0.2 mm 2 mps 671 mmHg 48%
    22:00 +21°C° 0.3 mm 2 mps 671 mmHg 50%
    23:00 +21°C° 0.3 mm 2 mps 671 mmHg 52%

    Tomorrow, 27 May, Saturday

    Time Temperature Precipitation Wind Pressure Humidity
    00:00 +21°C° 0.3 mm 2 mps 671 mmHg 53%
    01:00 +21°C° 0.1 mm 2 mps 671 mmHg 54%
    02:00 +21°C° 0.1 mm 1 mps 671 mmHg 55%
    03:00 +21°C° 0.1 mm 1 mps 671 mmHg 55%
    04:00 +22°C° 0.1 mm 1 mps 671 mmHg 54%
    05:00 +22°C° 0.1 mm 1 mps 671 mmHg 53%
    06:00 +22°C° 0.1 mm 1 mps 672 mmHg 52%
    07:00 +24°C° 0 mm 2 mps 672 mmHg 46%
    08:00 +26°C° 0 mm 2 mps 673 mmHg 39%
    09:00 +28°C° 0 mm 3 mps 673 mmHg 32%
    10:00 +30°C° 0 mm 3 mps 674 mmHg 29%
    11:00 +32°C° 0 mm 4 mps 674 mmHg 25%
    12:00 +33°C° 0 mm 4 mps 674 mmHg 22%
    13:00 +32°C° 0.1 mm 4 mps 673 mmHg 24%
    14:00 +31°C° 0.1 mm 3 mps 673 mmHg 26%
    15:00 +30°C° 0.1 mm 3 mps 673 mmHg 28%
    16:00 +29°C° 0.2 mm 2 mps 673 mmHg 31%
    17:00 +28°C° 0.2 mm 2 mps 673 mmHg 34%
    18:00 +27°C° 0.2 mm 1 mps 672 mmHg 37%
    19:00 +26°C° 0.4 mm 1 mps 672 mmHg 43%
    20:00 +24°C° 0.4 mm 1 mps 672 mmHg 48%
    21:00 +22°C° 0.4 mm 1 mps 672 mmHg 53%
    22:00 +22°C° 0.1 mm 1 mps 672 mmHg 55%
    23:00 +21°C° 0.1 mm 1 mps 672 mmHg 56%

    Day after tomorrow, 28 May, Sunday

    Time Temperature Precipitation Wind Pressure Humidity
    00:00 +21°C° 0.1 mm 1 mps 672 mmHg 58%
    01:00 +20°C° 0 mm 1 mps 672 mmHg 59%
    02:00 +20°C° 0 mm 1 mps 671 mmHg 60%
    03:00 +19°C° 0 mm 1 mps 671 mmHg 60%
    04:00 +20°C° 0 mm 1 mps 672 mmHg 57%
    05:00 +21°C° 0 mm 1 mps 672 mmHg 53%
    06:00 +22°C° 0 mm 1 mps 673 mmHg 50%
    07:00 +24°C° 0 mm 1 mps 673 mmHg 45%
    08:00 +26°C° 0 mm 1 mps 674 mmHg 40%
    09:00 +28°C° 0 mm 2 mps 674 mmHg 34%
    10:00 +29°C° 0 mm 2 mps 674 mmHg 31%
    11:00 +30°C° 0 mm 2 mps 674 mmHg 28%
    12:00 +31°C° 0 mm 3 mps 675 mmHg 25%
    13:00 +31°C° 0 mm 3 mps 674 mmHg 26%
    14:00 +31°C° 0 mm 3 mps 674 mmHg 26%
    15:00 +31°C° 0 mm 3 mps 673 mmHg 26%
    16:00 +30°C° 0.2 mm 3 mps 673 mmHg 29%
    17:00 +28°C° 0.2 mm 2 mps 673 mmHg 32%
    18:00 +27°C° 0.2 mm 2 mps 672 mmHg 35%
    19:00 +26°C° 0.1 mm 2 mps 672 mmHg 40%
    20:00 +24°C° 0.1 mm 1 mps 672 mmHg 45%
    21:00 +22°C° 0.1 mm 1 mps 672 mmHg 49%
    22:00 +21°C° 0 mm 1 mps 672 mmHg 51%
    23:00 +21°C° 0 mm 1 mps 672 mmHg 52%

    29 May, Monday

    Time Temperature Precipitation Wind Pressure Humidity
    00:00 +20°C° 0 mm 1 mps 671 mmHg 54%
    01:00 +20°C° 0 mm 1 mps 671 mmHg 55%
    02:00 +19°C° 0 mm 1 mps 671 mmHg 57%
    03:00 +19°C° 0 mm 1 mps 670 mmHg 59%
    04:00 +19°C° 0 mm 1 mps 671 mmHg 57%
    05:00 +19°C° 0 mm 2 mps 671 mmHg 55%
    06:00 +20°C° 0 mm 2 mps 671 mmHg 53%
    07:00 +21°C° 0 mm 2 mps 672 mmHg 48%
    08:00 +24°C° 0 mm 2 mps 672 mmHg 43%
    09:00 +26°C° 0 mm 3 mps 673 mmHg 38%
    10:00 +27°C° 0.1 mm 3 mps 673 mmHg 35%
    11:00 +28°C° 0.1 mm 3 mps 672 mmHg 32%
    12:00 +29°C° 0.1 mm 3 mps 672 mmHg 29%
    13:00 +28°C° 0.3 mm 3 mps 672 mmHg 30%
    14:00 +28°C° 0.3 mm 3 mps 672 mmHg 31%
    15:00 +28°C° 0.3 mm 3 mps 671 mmHg 32%
    16:00 +27°C° 0.6 mm 3 mps 671 mmHg 35%
    17:00 +26°C° 0.6 mm 3 mps 671 mmHg 38%
    18:00 +25°C° 0.6 mm 3 mps 671 mmHg 41%
    19:00 +24°C° 0.1 mm 2 mps 671 mmHg 46%
    20:00 +21°C° 0.1 mm 2 mps 671 mmHg 51%
    21:00 +20°C° 0.1 mm 2 mps 670 mmHg 55%
    22:00 +19°C° 0 mm 2 mps 671 mmHg 55%
    23:00 +19°C° 0 mm 2 mps 671 mmHg 56%

    30 May, Tuesday

    Time Temperature Precipitation Wind Pressure Humidity
    00:00 +18°C° 0 mm 2 mps 671 mmHg 56%
    01:00 +18°C° 0.1 mm 2 mps 670 mmHg 57%
    02:00 +18°C° 0.1 mm 1 mps 670 mmHg 59%
    03:00 +18°C° 0.1 mm 1 mps 670 mmHg 60%
    04:00 +18°C° 0 mm 1 mps 671 mmHg 57%
    05:00 +19°C° 0 mm 1 mps 671 mmHg 54%
    06:00 +20°C° 0 mm 1 mps 671 mmHg 51%
    07:00 +21°C° 0 mm 1 mps 672 mmHg 47%
    08:00 +22°C° 0 mm 1 mps 672 mmHg 43%
    09:00 +23°C° 0 mm 1 mps 673 mmHg 39%
    10:00 +24°C° 0 mm 1 mps 673 mmHg 37%
    11:00 +25°C° 0 mm 1 mps 673 mmHg 35%
    12:00 +26°C° 0 mm 2 mps 673 mmHg 34%
    13:00 +26°C° 0.4 mm 2 mps 673 mmHg 34%
    14:00 +26°C° 0.4 mm 2 mps 673 mmHg 35%
    15:00 +26°C° 0.4 mm 2 mps 672 mmHg 36%
    16:00 +25°C° 0.5 mm 2 mps 672 mmHg 42%
    17:00 +24°C° 0.5 mm 2 mps 672 mmHg 48%
    18:00 +23°C° 0.5 mm 2 mps 672 mmHg 53%
    19:00 +21°C° 0.2 mm 2 mps 672 mmHg 58%
    20:00 +21°C° 0.2 mm 1 mps 672 mmHg 62%
    21:00 +20°C° 0.2 mm 1 mps 672 mmHg 67%
    22:00 +20°C° 0.1 mm 1 mps 672 mmHg 69%
    23:00 +19°C° 0.1 mm 1 mps 672 mmHg 71%

    31 May, Wednesday

    Time Temperature Precipitation Wind Pressure Humidity
    00:00 +19°C° 0.1 mm 1 mps 672 mmHg 73%
    01:00 +16°C° 0 mm 0 mps 672 mmHg 74%
    02:00 +16°C° 0 mm 0 mps 671 mmHg 75%
    03:00 +15°C° 0 mm 0 mps 671 mmHg 76%
    04:00 +16°C° 0 mm 0 mps 672 mmHg 73%
    05:00 +17°C° 0 mm 0 mps 672 mmHg 70%
    06:00 +19°C° 0 mm 1 mps 673 mmHg 67%
    07:00 +21°C° 0 mm 1 mps 674 mmHg 59%
    08:00 +23°C° 0 mm 1 mps 674 mmHg 51%
    09:00 +25°C° 0 mm 1 mps 675 mmHg 43%
    10:00 +26°C° 0.1 mm 1 mps 674 mmHg 40%
    11:00 +26°C° 0.1 mm 1 mps 674 mmHg 37%
    12:00 +27°C° 0.1 mm 2 mps 674 mmHg 34%
    13:00 +27°C° 1 mm 2 mps 674 mmHg 36%
    14:00 +27°C° 1 mm 2 mps 674 mmHg 37%
    15:00 +26°C° 1 mm 2 mps 674 mmHg 39%
    16:00 +25°C° 0.7 mm 2 mps 674 mmHg 43%
    17:00 +25°C° 0.7 mm 2 mps 674 mmHg 47%
    18:00 +24°C° 0.7 mm 2 mps 674 mmHg 50%
    19:00 +23°C° 0 mm 1 mps 674 mmHg 54%
    20:00 +22°C° 0 mm 1 mps 674 mmHg 57%
    21:00 +21°C° 0 mm 1 mps 674 mmHg 60%
    22:00 +21°C° 0 mm 1 mps 674 mmHg 62%
    23:00 +20°C° 0 mm 1 mps 673 mmHg 64%
    Show more